User: anonymous   Login
Location: Kernascl�den
(48.0062°N, 3.3198°W)
Time: 21:29:29
(UTC+00:00)
Language:

USA 229 - Orbit

View from above orbital plane
View from above orbital plane
View from above satellite
View from above satellite

Ground track
Ground track

The orbit data is extracted from the following two-line orbital elements,

1 37386U 11014A   21110.82032027 0.00000000  00000-0  00000-0 0    06
2 37386  63.4444  43.6363 0197972 358.0322   1.9678 13.40820463    09
Epoch (UTC): 20 April 2021 19:41:15
Eccentricity: 0.0197972
inclination: 63.4444°
perigee height: 958 km
apogee height: 1254 km
right ascension of ascending node: 43.6363°
argument of perigee: 358.0322°
revolutions per day: 13.40820463
mean anomaly at epoch: 1.9678°
orbit number at epoch: 0

The dashed part of the orbit path shows where the satellite is in the earth's shadow,  

DLR